Time,TemperatureF,DewpointF,PressureIn,WindDirection,WindDirectionDegrees,WindSpeedMPH,WindSpeedGustMPH,Humidity,HourlyPrecipIn,Conditions,Clouds,dailyrainin,SoftwareType,DateUTC
2013-01-05 00:00:00,32.2,16.5,18.26,NW,324,0.0,0.0,52,0.00,,,0.00,WUHU216WMR968SP,2013-01-05 05:00:00,
2013-01-05 00:01:00,32.2,16.5,18.26,NW,324,0.0,0.0,52,0.00,,,0.00,WUHU216WMR968SP,2013-01-05 05:01:00,
2013-01-05 00:06:00,32.2,17.0,18.26,NW,316,0.0,0.0,53,0.00,,,0.00,WUHU216WMR968SP,2013-01-05 05:06:00,
2013-01-05 00:11:00,32.2,17.0,18.26,NW,321,0.0,0.0,53,0.00,,,0.00,WUHU216WMR968SP,2013-01-05 05:11:00,
2013-01-05 00:16:00,32.2,17.4,18.26,NW,316,0.0,0.0,54,0.00,,,0.00,WUHU216WMR968SP,2013-01-05 05:16:00,
2013-01-05 00:21:00,32.0,17.7,18.26,NW,321,0.0,0.0,55,0.00,,,0.00,WUHU216WMR968SP,2013-01-05 05:21:00,
2013-01-05 00:26:00,31.8,17.9,18.26,NNW,335,0.0,0.0,56,0.00,,,0.00,WUHU216WMR968SP,2013-01-05 05:26:00,
2013-01-05 00:31:00,31.8,18.3,18.26,NW,326,0.0,0.0,57,0.00,,,0.00,WUHU216WMR968SP,2013-01-05 05:31:00,
2013-01-05 00:36:00,31.6,18.1,18.26,NW,323,0.0,0.0,57,0.00,,,0.00,WUHU216WMR968SP,2013-01-05 05:36:00,
2013-01-05 00:41:00,31.6,18.5,18.26,NW,320,0.0,0.0,58,0.00,,,0.00,WUHU216WMR968SP,2013-01-05 05:41:00,
2013-01-05 00:46:00,31.6,18.1,18.26,NW,320,0.0,0.0,57,0.00,,,0.00,WUHU216WMR968SP,2013-01-05 05:46:00,
2013-01-05 00:51:00,31.8,18.3,18.26,NW,325,0.0,0.0,57,0.00,,,0.00,WUHU216WMR968SP,2013-01-05 05:51:00,
2013-01-05 00:56:00,31.8,17.9,18.26,NNW,335,0.0,0.0,56,0.00,,,0.00,WUHU216WMR968SP,2013-01-05 05:56:00,
2013-01-05 01:01:00,31.8,17.9,18.26,NW,310,0.0,0.0,56,0.00,,,0.00,WUHU216WMR968SP,2013-01-05 06:01:00,
2013-01-05 01:06:00,31.8,17.5,18.26,NW,314,0.0,0.0,55,0.00,,,0.00,WUHU216WMR968SP,2013-01-05 06:06:00,
2013-01-05 01:11:00,31.8,17.5,18.26,NW,305,0.0,0.0,55,0.00,,,0.00,WUHU216WMR968SP,2013-01-05 06:11:00,
2013-01-05 01:16:00,32.0,17.7,18.26,NW,311,0.0,0.0,55,0.00,,,0.00,WUHU216WMR968SP,2013-01-05 06:16:00,
2013-01-05 01:21:00,31.8,17.0,18.26,West,267,0.0,0.0,54,0.00,,,0.00,WUHU216WMR968SP,2013-01-05 06:21:00,
2013-01-05 01:26:00,31.8,17.0,18.26,NW,318,0.0,0.0,54,0.00,,,0.00,WUHU216WMR968SP,2013-01-05 06:26:00,
2013-01-05 01:31:00,32.0,17.2,18.26,NW,323,0.0,0.0,54,0.00,,,0.00,WUHU216WMR968SP,2013-01-05 06:31:00,
2013-01-05 01:36:00,32.2,17.4,18.26,NW,314,0.0,0.0,54,0.00,,,0.00,WUHU216WMR968SP,2013-01-05 06:36:00,
2013-01-05 01:41:00,32.0,17.2,18.26,NW,316,0.0,0.0,54,0.00,,,0.00,WUHU216WMR968SP,2013-01-05 06:41:00,
2013-01-05 01:46:00,32.0,16.8,18.26,NW,325,0.0,0.0,53,0.00,,,0.00,WUHU216WMR968SP,2013-01-05 06:46:00,
2013-01-05 01:51:00,32.0,16.8,18.26,NW,324,0.0,0.0,53,0.00,,,0.00,WUHU216WMR968SP,2013-01-05 06:51:00,
2013-01-05 01:56:00,32.2,16.5,18.26,NW,311,0.0,0.0,52,0.00,,,0.00,WUHU216WMR968SP,2013-01-05 06:56:00,
2013-01-05 02:01:00,32.0,15.9,18.26,NW,307,0.0,0.0,51,0.00,,,0.00,WUHU216WMR968SP,2013-01-05 07:01:00,
2013-01-05 02:06:00,31.8,15.7,18.26,NW,313,0.0,0.0,51,0.00,,,0.00,WUHU216WMR968SP,2013-01-05 07:06:00,
2013-01-05 02:11:00,31.3,14.7,18.26,NW,318,0.0,0.0,50,0.00,,,0.00,WUHU216WMR968SP,2013-01-05 07:11:00,
2013-01-05 02:16:00,30.6,14.6,18.26,WNW,301,0.0,0.0,51,0.00,,,0.00,WUHU216WMR968SP,2013-01-05 07:16:00,
2013-01-05 02:21:00,30.2,14.2,18.26,WNW,297,0.0,0.0,51,0.00,,,0.00,WUHU216WMR968SP,2013-01-05 07:21:00,
2013-01-05 02:26:00,30.4,14.4,18.26,NNW,329,0.0,0.0,51,0.00,,,0.00,WUHU216WMR968SP,2013-01-05 07:26:00,
2013-01-05 02:31:00,30.6,14.1,18.26,NW,324,0.0,0.0,50,0.00,,,0.00,WUHU216WMR968SP,2013-01-05 07:31:00,
2013-01-05 02:36:00,30.9,14.4,18.26,NW,320,0.0,0.0,50,0.00,,,0.00,WUHU216WMR968SP,2013-01-05 07:36:00,
2013-01-05 02:41:00,30.9,14.4,18.26,NNW,330,0.0,0.0,50,0.00,,,0.00,WUHU216WMR968SP,2013-01-05 07:41:00,
2013-01-05 02:46:00,31.5,14.0,18.26,NW,317,0.0,0.0,48,0.00,,,0.00,WUHU216WMR968SP,2013-01-05 07:46:00,
2013-01-05 02:51:00,31.6,14.1,18.26,NW,316,0.0,0.0,48,0.00,,,0.00,WUHU216WMR968SP,2013-01-05 07:51:00,
2013-01-05 02:56:00,31.8,14.2,18.26,NW,312,0.0,0.0,48,0.00,,,0.00,WUHU216WMR968SP,2013-01-05 07:56:00,
2013-01-05 03:01:00,31.8,13.7,18.26,NNW,330,0.0,0.0,47,0.00,,,0.00,WUHU216WMR968SP,2013-01-05 08:01:00,
2013-01-05 03:06:00,32.0,13.9,18.26,NW,315,0.0,0.0,47,0.00,,,0.00,WUHU216WMR968SP,2013-01-05 08:06:00,
2013-01-05 03:11:00,32.0,13.4,18.26,WNW,300,0.0,0.0,46,0.00,,,0.00,WUHU216WMR968SP,2013-01-05 08:11:00,
2013-01-05 03:16:00,32.2,13.6,18.26,WNW,300,0.0,0.0,46,0.00,,,0.00,WUHU216WMR968SP,2013-01-05 08:16:00,
2013-01-05 03:21:00,32.4,13.8,18.26,NNW,332,0.0,0.0,46,0.00,,,0.00,WUHU216WMR968SP,2013-01-05 08:21:00,
2013-01-05 03:26:00,32.4,13.8,18.26,NNW,328,0.0,0.0,46,0.00,,,0.00,WUHU216WMR968SP,2013-01-05 08:26:00,
2013-01-05 03:31:00,32.4,13.8,18.26,NW,310,0.0,0.0,46,0.00,,,0.00,WUHU216WMR968SP,2013-01-05 08:31:00,
2013-01-05 03:36:00,32.5,13.4,18.26,NW,307,0.0,2.2,45,0.00,,,0.00,WUHU216WMR968SP,2013-01-05 08:36:00,
2013-01-05 03:41:00,32.5,13.9,18.26,NW,314,0.0,2.2,46,0.00,,,0.00,WUHU216WMR968SP,2013-01-05 08:41:00,
2013-01-05 03:46:00,32.5,13.4,18.26,NNW,329,0.0,0.0,45,0.00,,,0.00,WUHU216WMR968SP,2013-01-05 08:46:00,
2013-01-05 03:51:00,32.5,13.9,18.26,NW,321,0.0,0.0,46,0.00,,,0.00,WUHU216WMR968SP,2013-01-05 08:51:00,
2013-01-05 03:56:00,32.7,13.6,18.26,WNW,293,0.0,0.0,45,0.00,,,0.00,WUHU216WMR968SP,2013-01-05 08:56:00,
2013-01-05 04:01:00,32.5,13.4,18.26,NW,305,0.0,0.0,45,0.00,,,0.00,WUHU216WMR968SP,2013-01-05 09:01:00,
2013-01-05 04:06:00,32.4,13.8,18.26,WNW,295,0.0,0.0,46,0.00,,,0.00,WUHU216WMR968SP,2013-01-05 09:06:00,
2013-01-05 04:11:00,32.2,14.1,18.26,NW,305,0.0,0.0,47,0.00,,,0.00,WUHU216WMR968SP,2013-01-05 09:11:00,
2013-01-05 04:16:00,32.2,14.6,18.26,WNW,295,0.0,0.0,48,0.00,,,0.00,WUHU216WMR968SP,2013-01-05 09:16:00,
2013-01-05 04:21:00,32.2,15.6,18.26,NW,306,0.0,0.0,50,0.00,,,0.00,WUHU216WMR968SP,2013-01-05 09:21:00,
2013-01-05 04:26:00,32.2,15.6,18.26,NW,326,0.0,6.3,50,0.00,,,0.00,WUHU216WMR968SP,2013-01-05 09:26:00,
2013-01-05 04:31:00,32.2,15.6,18.26,NW,314,0.0,6.3,50,0.00,,,0.00,WUHU216WMR968SP,2013-01-05 09:31:00,
2013-01-05 04:36:00,32.0,15.4,18.26,WNW,302,0.0,0.0,50,0.00,,,0.00,WUHU216WMR968SP,2013-01-05 09:36:00,
2013-01-05 04:41:00,31.5,14.4,18.26,NW,314,0.0,0.0,49,0.00,,,0.00,WUHU216WMR968SP,2013-01-05 09:41:00,
2013-01-05 04:46:00,31.5,14.9,18.26,WNW,297,0.0,0.0,50,0.00,,,0.00,WUHU216WMR968SP,2013-01-05 09:46:00,
2013-01-05 04:51:00,32.0,15.9,18.26,NW,306,0.0,0.0,51,0.00,,,0.00,WUHU216WMR968SP,2013-01-05 09:51:00,
2013-01-05 04:56:00,32.0,16.3,18.26,NW,312,0.0,0.0,52,0.00,,,0.00,WUHU216WMR968SP,2013-01-05 09:56:00,
2013-01-05 05:01:00,32.0,16.8,18.26,NW,305,0.0,0.0,53,0.00,,,0.00,WUHU216WMR968SP,2013-01-05 10:01:00,
2013-01-05 05:06:00,31.8,16.6,18.26,NW,306,0.0,0.0,53,0.00,,,0.00,WUHU216WMR968SP,2013-01-05 10:06:00,
2013-01-05 05:11:00,31.6,16.4,18.26,NW,325,0.0,0.0,53,0.00,,,0.00,WUHU216WMR968SP,2013-01-05 10:11:00,
2013-01-05 05:16:00,31.3,16.1,18.26,NNW,331,0.0,0.0,53,0.00,,,0.00,WUHU216WMR968SP,2013-01-05 10:16:00,
2013-01-05 05:21:00,30.9,15.7,18.26,NW,319,0.0,0.0,53,0.00,,,0.00,WUHU216WMR968SP,2013-01-05 10:21:00,
2013-01-05 05:26:00,31.1,15.5,18.26,NNE,12,0.0,0.0,52,0.00,,,0.00,WUHU216WMR968SP,2013-01-05 10:26:00,
2013-01-05 05:31:00,30.9,14.8,18.26,WNW,300,0.0,0.0,51,0.00,,,0.00,WUHU216WMR968SP,2013-01-05 10:31:00,
2013-01-05 05:36:00,30.9,14.8,18.26,WNW,299,0.0,0.0,51,0.00,,,0.00,WUHU216WMR968SP,2013-01-05 10:36:00,
2013-01-05 05:41:00,31.1,15.0,18.26,WNW,303,0.0,0.0,51,0.00,,,0.00,WUHU216WMR968SP,2013-01-05 10:41:00,
2013-01-05 05:46:00,31.1,14.6,18.26,NW,318,0.0,0.0,50,0.00,,,0.00,WUHU216WMR968SP,2013-01-05 10:46:00,
2013-01-05 05:51:00,31.1,14.6,18.26,NW,326,0.0,0.0,50,0.00,,,0.00,WUHU216WMR968SP,2013-01-05 10:51:00,
2013-01-05 05:56:00,31.3,14.3,18.26,NW,312,0.0,0.0,49,0.00,,,0.00,WUHU216WMR968SP,2013-01-05 10:56:00,
2013-01-05 06:01:00,31.1,14.1,18.26,NW,304,0.0,0.0,49,0.00,,,0.00,WUHU216WMR968SP,2013-01-05 11:01:00,
2013-01-05 06:06:00,30.9,14.4,18.26,NW,326,0.0,0.0,50,0.00,,,0.00,WUHU216WMR968SP,2013-01-05 11:06:00,
2013-01-05 06:11:00,30.9,14.4,18.26,NW,315,0.0,0.0,50,0.00,,,0.00,WUHU216WMR968SP,2013-01-05 11:11:00,
2013-01-05 06:16:00,30.6,14.1,18.26,NNW,327,0.0,0.0,50,0.00,,,0.00,WUHU216WMR968SP,2013-01-05 11:16:00,
2013-01-05 06:21:00,30.6,14.6,18.26,NW,312,0.0,0.0,51,0.00,,,0.00,WUHU216WMR968SP,2013-01-05 11:21:00,
2013-01-05 06:26:00,30.6,14.6,18.26,NW,306,0.0,8.7,51,0.00,,,0.00,WUHU216WMR968SP,2013-01-05 11:26:00,
2013-01-05 06:31:00,30.7,14.2,18.26,NW,318,0.0,8.7,50,0.00,,,0.00,WUHU216WMR968SP,2013-01-05 11:31:00,
2013-01-05 06:36:00,31.1,14.6,18.26,West,265,0.0,8.1,50,0.00,,,0.00,WUHU216WMR968SP,2013-01-05 11:36:00,
2013-01-05 06:41:00,31.6,14.5,18.26,NW,311,0.0,0.0,49,0.00,,,0.00,WUHU216WMR968SP,2013-01-05 11:41:00,
2013-01-05 06:46:00,32.2,14.6,18.26,NW,314,0.0,0.0,48,0.00,,,0.00,WUHU216WMR968SP,2013-01-05 11:46:00,
2013-01-05 06:51:00,32.4,15.8,18.26,NW,309,0.0,0.0,50,0.00,,,0.00,WUHU216WMR968SP,2013-01-05 11:51:00,
2013-01-05 06:56:00,32.2,16.5,18.26,North,7,0.0,0.0,52,0.00,,,0.00,WUHU216WMR968SP,2013-01-05 11:56:00,
2013-01-05 07:01:00,31.8,16.6,18.26,NW,317,0.0,0.0,53,0.00,,,0.00,WUHU216WMR968SP,2013-01-05 12:01:00,
2013-01-05 07:06:00,30.9,16.2,18.26,NW,317,0.0,0.0,54,0.00,,,0.00,WUHU216WMR968SP,2013-01-05 12:06:00,
2013-01-05 07:11:00,30.2,16.4,18.26,NNW,333,0.0,0.0,56,0.00,,,0.00,WUHU216WMR968SP,2013-01-05 12:11:00,
2013-01-05 07:16:00,30.2,16.0,18.26,NW,321,0.0,0.0,55,0.00,,,0.00,WUHU216WMR968SP,2013-01-05 12:16:00,
2013-01-05 07:21:00,30.2,15.5,18.26,North,353,0.0,0.0,54,0.00,,,0.00,WUHU216WMR968SP,2013-01-05 12:21:00,
2013-01-05 07:26:00,29.7,15.1,18.26,NW,321,0.0,0.0,54,0.00,,,0.00,WUHU216WMR968SP,2013-01-05 12:26:00,
2013-01-05 07:31:00,30.2,14.2,18.26,NW,317,0.0,0.0,51,0.00,,,0.00,WUHU216WMR968SP,2013-01-05 12:31:00,
2013-01-05 07:36:00,29.8,13.3,18.26,NW,317,0.0,0.0,50,0.00,,,0.00,WUHU216WMR968SP,2013-01-05 12:36:00,
2013-01-05 07:41:00,29.7,12.3,18.26,West,261,0.0,0.0,48,0.00,,,0.00,WUHU216WMR968SP,2013-01-05 12:41:00,
2013-01-05 07:46:00,29.5,11.6,18.26,NW,312,0.0,6.7,47,0.00,,,0.00,WUHU216WMR968SP,2013-01-05 12:46:00,
2013-01-05 07:51:00,30.0,11.1,18.26,WNW,303,0.0,6.7,45,0.00,,,0.00,WUHU216WMR968SP,2013-01-05 12:51:00,
2013-01-05 07:56:00,30.2,10.7,18.26,WNW,295,0.0,0.0,44,0.00,,,0.00,WUHU216WMR968SP,2013-01-05 12:56:00,
2013-01-05 08:01:00,30.6,10.6,18.26,NW,304,0.0,0.0,43,0.00,,,0.00,WUHU216WMR968SP,2013-01-05 13:01:00,
2013-01-05 08:06:00,31.1,10.5,18.26,NW,317,0.0,0.0,42,0.00,,,0.00,WUHU216WMR968SP,2013-01-05 13:06:00,
2013-01-05 08:11:00,31.3,10.1,18.26,WNW,289,0.0,3.1,41,0.00,,,0.00,WUHU216WMR968SP,2013-01-05 13:11:00,
2013-01-05 08:16:00,31.8,10.6,18.26,ESE,110,0.0,4.9,41,0.00,,,0.00,WUHU216WMR968SP,2013-01-05 13:16:00,
2013-01-05 08:21:00,31.8,10.6,18.26,SE,134,0.0,4.9,41,0.00,,,0.00,WUHU216WMR968SP,2013-01-05 13:21:00,
2013-01-05 08:26:00,31.6,10.4,18.26,West,270,0.0,3.6,41,0.00,,,0.00,WUHU216WMR968SP,2013-01-05 13:26:00,
2013-01-05 08:31:00,31.5,10.3,18.26,SE,144,0.0,3.6,41,0.00,,,0.00,WUHU216WMR968SP,2013-01-05 13:31:00,
2013-01-05 08:36:00,31.8,10.0,18.26,WNW,284,0.0,0.0,40,0.00,,,0.00,WUHU216WMR968SP,2013-01-05 13:36:00,
2013-01-05 08:41:00,31.8,10.0,18.26,NW,321,0.0,0.0,40,0.00,,,0.00,WUHU216WMR968SP,2013-01-05 13:41:00,
2013-01-05 08:46:00,31.6,9.8,18.26,ESE,105,0.0,8.3,40,0.00,,,0.00,WUHU216WMR968SP,2013-01-05 13:46:00,
2013-01-05 08:51:00,31.5,8.6,18.26,ESE,117,0.0,8.3,38,0.00,,,0.00,WUHU216WMR968SP,2013-01-05 13:51:00,
2013-01-05 08:56:00,31.1,7.0,18.26,North,0,0.0,2.2,36,0.00,,,0.00,WUHU216WMR968SP,2013-01-05 13:56:00,
2013-01-05 09:01:00,31.6,5.5,18.26,SE,142,0.0,2.2,33,0.00,,,0.00,WUHU216WMR968SP,2013-01-05 14:01:00,
2013-01-05 09:06:00,32.0,5.2,18.26,NW,315,0.0,2.2,32,0.00,,,0.00,WUHU216WMR968SP,2013-01-05 14:06:00,
2013-01-05 09:11:00,32.2,6.1,18.26,NW,315,0.0,0.0,33,0.00,,,0.00,WUHU216WMR968SP,2013-01-05 14:11:00,
2013-01-05 09:16:00,32.2,5.4,18.26,NW,313,0.0,11.9,32,0.00,,,0.00,WUHU216WMR968SP,2013-01-05 14:16:00,
2013-01-05 09:21:00,32.0,5.2,18.26,NW,310,0.0,11.9,32,0.00,,,0.00,WUHU216WMR968SP,2013-01-05 14:21:00,
2013-01-05 09:26:00,32.5,5.7,18.26,NW,317,0.0,5.8,32,0.00,,,0.00,WUHU216WMR968SP,2013-01-05 14:26:00,
2013-01-05 09:31:00,32.5,5.7,18.26,SSE,156,0.0,0.0,32,0.00,,,0.00,WUHU216WMR968SP,2013-01-05 14:31:00,
2013-01-05 09:36:00,32.7,5.1,18.26,NNW,342,0.0,0.0,31,0.00,,,0.00,WUHU216WMR968SP,2013-01-05 14:36:00,
2013-01-05 09:41:00,33.3,6.4,18.26,NW,322,0.0,0.0,32,0.00,,,0.00,WUHU216WMR968SP,2013-01-05 14:41:00,
2013-01-05 09:46:00,33.8,6.8,18.26,NW,317,0.0,0.0,32,0.00,,,0.00,WUHU216WMR968SP,2013-01-05 14:46:00,
2013-01-05 09:51:00,34.2,6.5,18.26,NW,324,0.0,2.2,31,0.00,,,0.00,WUHU216WMR968SP,2013-01-05 14:51:00,
2013-01-05 09:56:00,34.9,7.1,18.26,WNW,288,0.0,2.2,31,0.00,,,0.00,WUHU216WMR968SP,2013-01-05 14:56:00,
2013-01-05 10:01:00,35.2,7.3,18.26,West,268,0.0,2.2,31,0.00,,,0.00,WUHU216WMR968SP,2013-01-05 15:01:00,
2013-01-05 10:06:00,35.1,7.3,18.26,NW,318,0.0,2.2,31,0.00,,,0.00,WUHU216WMR968SP,2013-01-05 15:06:00,
2013-01-05 10:11:00,35.4,6.8,18.26,WNW,296,0.0,0.0,30,0.00,,,0.00,WUHU216WMR968SP,2013-01-05 15:11:00,
2013-01-05 10:16:00,34.2,5.7,18.26,WNW,299,0.0,2.7,30,0.00,,,0.00,WUHU216WMR968SP,2013-01-05 15:16:00,
2013-01-05 10:21:00,33.6,5.9,18.26,NNW,328,0.0,2.7,31,0.00,,,0.00,WUHU216WMR968SP,2013-01-05 15:21:00,
2013-01-05 10:26:00,33.1,5.5,18.26,NW,321,0.0,7.2,31,0.00,,,0.00,WUHU216WMR968SP,2013-01-05 15:26:00,
2013-01-05 10:31:00,32.9,5.3,18.26,West,281,0.0,7.2,31,0.00,,,0.00,WUHU216WMR968SP,2013-01-05 15:31:00,
2013-01-05 10:36:00,32.9,4.6,18.26,NW,318,0.0,0.0,30,0.00,,,0.00,WUHU216WMR968SP,2013-01-05 15:36:00,
2013-01-05 10:41:00,32.7,5.1,18.26,WNW,294,0.0,0.0,31,0.00,,,0.00,WUHU216WMR968SP,2013-01-05 15:41:00,
2013-01-05 10:46:00,32.9,5.3,18.26,WNW,283,0.0,0.0,31,0.00,,,0.00,WUHU216WMR968SP,2013-01-05 15:46:00,
2013-01-05 10:51:00,33.1,5.5,18.26,WNW,290,0.0,0.0,31,0.00,,,0.00,WUHU216WMR968SP,2013-01-05 15:51:00,
2013-01-05 10:56:00,33.3,5.7,18.26,West,279,0.0,0.0,31,0.00,,,0.00,WUHU216WMR968SP,2013-01-05 15:56:00,
2013-01-05 11:01:00,33.1,5.5,18.26,West,280,0.0,0.0,31,0.00,,,0.00,WUHU216WMR968SP,2013-01-05 16:01:00,
2013-01-05 11:06:00,32.9,5.3,18.26,NNW,330,0.0,0.0,31,0.00,,,0.00,WUHU216WMR968SP,2013-01-05 16:06:00,
2013-01-05 11:11:00,32.9,5.3,18.26,NW,316,5.8,10.5,31,0.00,,,0.00,WUHU216WMR968SP,2013-01-05 16:11:00,
2013-01-05 11:16:00,32.5,5.0,18.26,West,278,0.0,10.5,31,0.00,,,0.00,WUHU216WMR968SP,2013-01-05 16:16:00,
2013-01-05 11:21:00,32.5,5.0,18.26,NW,321,0.0,8.7,31,0.00,,,0.00,WUHU216WMR968SP,2013-01-05 16:21:00,
2013-01-05 11:26:00,32.5,5.0,18.26,WNW,285,4.5,10.5,31,0.00,,,0.00,WUHU216WMR968SP,2013-01-05 16:26:00,
2013-01-05 11:31:00,32.7,5.1,18.26,West,278,0.0,10.5,31,0.00,,,0.00,WUHU216WMR968SP,2013-01-05 16:31:00,
2013-01-05 11:36:00,33.1,5.5,18.26,NW,326,0.0,4.5,31,0.00,,,0.00,WUHU216WMR968SP,2013-01-05 16:36:00,
2013-01-05 11:41:00,33.6,5.9,18.26,NNW,333,0.0,0.0,31,0.00,,,0.00,WUHU216WMR968SP,2013-01-05 16:41:00,
2013-01-05 11:46:00,33.4,5.8,18.26,NW,311,0.0,0.0,31,0.00,,,0.00,WUHU216WMR968SP,2013-01-05 16:46:00,
2013-01-05 11:51:00,32.9,5.3,18.26,NW,313,0.0,0.0,31,0.00,,,0.00,WUHU216WMR968SP,2013-01-05 16:51:00,
2013-01-05 11:56:00,32.9,5.3,18.26,NW,325,0.0,2.7,31,0.00,,,0.00,WUHU216WMR968SP,2013-01-05 16:56:00,
2013-01-05 12:01:00,32.7,5.1,18.26,NNW,328,0.0,13.6,31,0.00,,,0.00,WUHU216WMR968SP,2013-01-05 17:01:00,
2013-01-05 12:06:00,32.7,5.1,18.26,NW,314,0.0,13.6,31,0.00,,,0.00,WUHU216WMR968SP,2013-01-05 17:06:00,
2013-01-05 12:11:00,32.9,5.3,18.26,NNW,338,0.0,2.2,31,0.00,,,0.00,WUHU216WMR968SP,2013-01-05 17:11:00,
2013-01-05 12:16:00,32.9,5.3,18.26,NW,326,0.0,12.3,31,0.00,,,0.00,WUHU216WMR968SP,2013-01-05 17:16:00,
2013-01-05 12:21:00,33.1,5.5,18.26,NW,313,0.0,12.3,31,0.00,,,0.00,WUHU216WMR968SP,2013-01-05 17:21:00,
2013-01-05 12:26:00,33.3,5.7,18.26,NW,318,0.0,10.1,31,0.00,,,0.00,WUHU216WMR968SP,2013-01-05 17:26:00,
2013-01-05 12:31:00,33.1,5.5,18.26,WNW,292,0.0,2.2,31,0.00,,,0.00,WUHU216WMR968SP,2013-01-05 17:31:00,
2013-01-05 12:36:00,33.1,5.5,18.26,NNW,330,0.0,2.2,31,0.00,,,0.00,WUHU216WMR968SP,2013-01-05 17:36:00,
2013-01-05 12:41:00,33.3,5.7,18.26,NW,311,0.0,0.0,31,0.00,,,0.00,WUHU216WMR968SP,2013-01-05 17:41:00,
2013-01-05 12:46:00,33.3,5.7,18.26,WNW,297,0.0,0.0,31,0.00,,,0.00,WUHU216WMR968SP,2013-01-05 17:46:00,
2013-01-05 12:51:00,33.1,5.5,18.26,ESE,107,0.0,4.0,31,0.00,,,0.00,WUHU216WMR968SP,2013-01-05 17:51:00,
2013-01-05 12:56:00,32.7,5.1,18.26,West,271,0.0,5.8,31,0.00,,,0.00,WUHU216WMR968SP,2013-01-05 17:56:00,
2013-01-05 13:01:00,32.2,4.7,18.26,WNW,303,0.0,6.7,31,0.00,,,0.00,WUHU216WMR968SP,2013-01-05 18:01:00,
2013-01-05 13:06:00,32.4,4.9,18.26,NNW,328,0.0,6.7,31,0.00,,,0.00,WUHU216WMR968SP,2013-01-05 18:06:00,
2013-01-05 13:11:00,32.7,5.1,18.26,NW,309,0.0,0.0,31,0.00,,,0.00,WUHU216WMR968SP,2013-01-05 18:11:00,
2013-01-05 13:16:00,32.7,5.1,18.26,WNW,286,0.0,0.0,31,0.00,,,0.00,WUHU216WMR968SP,2013-01-05 18:16:00,
2013-01-05 13:21:00,32.7,5.1,18.26,WNW,288,0.0,0.0,31,0.00,,,0.00,WUHU216WMR968SP,2013-01-05 18:21:00,
2013-01-05 13:26:00,32.7,5.1,18.26,West,268,0.0,0.0,31,0.00,,,0.00,WUHU216WMR968SP,2013-01-05 18:26:00,
2013-01-05 13:31:00,32.5,5.0,18.26,WNW,297,0.0,2.2,31,0.00,,,0.00,WUHU216WMR968SP,2013-01-05 18:31:00,
2013-01-05 13:36:00,32.5,5.0,18.26,WNW,297,0.0,2.2,31,0.00,,,0.00,WUHU216WMR968SP,2013-01-05 18:36:00,
2013-01-05 13:41:00,32.4,4.9,18.26,NNE,18,0.0,0.0,31,0.00,,,0.00,WUHU216WMR968SP,2013-01-05 18:41:00,
2013-01-05 13:46:00,32.5,5.0,18.26,NW,314,0.0,0.0,31,0.00,,,0.00,WUHU216WMR968SP,2013-01-05 18:46:00,
2013-01-05 13:51:00,32.5,5.0,18.26,NW,316,0.0,2.2,31,0.00,,,0.00,WUHU216WMR968SP,2013-01-05 18:51:00,
2013-01-05 13:56:00,32.5,5.0,18.26,NW,325,0.0,2.2,31,0.00,,,0.00,WUHU216WMR968SP,2013-01-05 18:56:00,
2013-01-05 14:01:00,32.5,5.0,18.26,WNW,289,0.0,2.2,31,0.00,,,0.00,WUHU216WMR968SP,2013-01-05 19:01:00,
2013-01-05 14:06:00,32.5,5.0,18.26,NW,316,0.0,0.0,31,0.00,,,0.00,WUHU216WMR968SP,2013-01-05 19:06:00,
2013-01-05 14:11:00,32.5,5.0,18.26,West,274,0.0,0.0,31,0.00,,,0.00,WUHU216WMR968SP,2013-01-05 19:11:00,
2013-01-05 14:16:00,32.4,4.9,18.26,NW,309,0.0,0.0,31,0.00,,,0.00,WUHU216WMR968SP,2013-01-05 19:16:00,
2013-01-05 14:21:00,32.2,4.7,18.26,NW,318,0.0,3.1,31,0.00,,,0.00,WUHU216WMR968SP,2013-01-05 19:21:00,
2013-01-05 14:26:00,31.8,4.4,18.26,NW,324,0.0,3.1,31,0.00,,,0.00,WUHU216WMR968SP,2013-01-05 19:26:00,
2013-01-05 14:31:00,31.6,4.2,18.26,North,353,0.0,2.2,31,0.00,,,0.00,WUHU216WMR968SP,2013-01-05 19:31:00,
2013-01-05 14:36:00,31.5,4.1,18.26,ESE,118,0.0,0.0,31,0.00,,,0.00,WUHU216WMR968SP,2013-01-05 19:36:00,
2013-01-05 14:41:00,31.1,3.7,18.26,SE,124,0.0,0.0,31,0.00,,,0.00,WUHU216WMR968SP,2013-01-05 19:41:00,
2013-01-05 14:46:00,30.9,3.6,18.26,NW,319,0.0,0.0,31,0.00,,,0.00,WUHU216WMR968SP,2013-01-05 19:46:00,
2013-01-05 14:51:00,30.7,3.4,18.26,NW,308,0.0,0.0,31,0.00,,,0.00,WUHU216WMR968SP,2013-01-05 19:51:00,
2013-01-05 14:56:00,30.6,3.3,18.26,NW,325,0.0,0.0,31,0.00,,,0.00,WUHU216WMR968SP,2013-01-05 19:56:00,
2013-01-05 15:01:00,30.7,3.4,18.26,WNW,294,0.0,0.0,31,0.00,,,0.00,WUHU216WMR968SP,2013-01-05 20:01:00,
2013-01-05 15:06:00,30.7,3.4,18.26,West,273,0.0,0.0,31,0.00,,,0.00,WUHU216WMR968SP,2013-01-05 20:06:00,
2013-01-05 15:11:00,30.6,3.3,18.26,NW,304,0.0,0.0,31,0.00,,,0.00,WUHU216WMR968SP,2013-01-05 20:11:00,
2013-01-05 15:16:00,30.6,3.3,18.26,NW,304,0.0,0.0,31,0.00,,,0.00,WUHU216WMR968SP,2013-01-05 20:16:00,
2013-01-05 15:21:00,30.6,3.3,18.26,SE,146,0.0,0.0,31,0.00,,,0.00,WUHU216WMR968SP,2013-01-05 20:21:00,
2013-01-05 15:26:00,30.7,4.1,18.26,South,180,0.0,0.0,32,0.00,,,0.00,WUHU216WMR968SP,2013-01-05 20:26:00,
2013-01-05 15:31:00,30.7,4.1,18.26,South,180,0.0,0.0,32,0.00,,,0.00,WUHU216WMR968SP,2013-01-05 20:31:00,
2013-01-05 15:36:00,30.2,3.6,18.26,SSW,202,0.0,0.0,32,0.00,,,0.00,WUHU216WMR968SP,2013-01-05 20:36:00,
2013-01-05 15:41:00,29.8,3.3,18.26,WNW,299,0.0,0.0,32,0.00,,,0.00,WUHU216WMR968SP,2013-01-05 20:41:00,
2013-01-05 15:46:00,29.5,3.0,18.26,NW,305,0.0,0.0,32,0.00,,,0.00,WUHU216WMR968SP,2013-01-05 20:46:00,
2013-01-05 15:51:00,29.1,2.7,18.26,WNW,289,0.0,0.0,32,0.00,,,0.00,WUHU216WMR968SP,2013-01-05 20:51:00,
2013-01-05 15:56:00,29.3,2.8,18.26,WNW,302,0.0,0.0,32,0.00,,,0.00,WUHU216WMR968SP,2013-01-05 20:56:00,
2013-01-05 16:01:00,28.9,3.1,18.26,North,357,0.0,0.0,33,0.00,,,0.00,WUHU216WMR968SP,2013-01-05 21:01:00,
2013-01-05 16:06:00,29.1,3.3,18.26,North,357,0.0,0.0,33,0.00,,,0.00,WUHU216WMR968SP,2013-01-05 21:06:00,
2013-01-05 16:11:00,28.8,2.4,18.26,ESE,123,0.0,0.0,32,0.00,,,0.00,WUHU216WMR968SP,2013-01-05 21:11:00,
2013-01-05 16:16:00,28.4,2.7,18.26,ESE,118,0.0,0.0,33,0.00,,,0.00,WUHU216WMR968SP,2013-01-05 21:16:00,
2013-01-05 16:21:00,28.2,2.5,18.26,ESE,122,0.0,0.0,33,0.00,,,0.00,WUHU216WMR968SP,2013-01-05 21:21:00,
2013-01-05 16:26:00,27.9,2.9,18.26,NW,324,0.0,0.0,34,0.00,,,0.00,WUHU216WMR968SP,2013-01-05 21:26:00,
2013-01-05 16:31:00,27.7,2.7,18.26,NW,308,0.0,0.0,34,0.00,,,0.00,WUHU216WMR968SP,2013-01-05 21:31:00,
2013-01-05 16:36:00,27.1,2.2,18.26,WNW,303,0.0,0.0,34,0.00,,,0.00,WUHU216WMR968SP,2013-01-05 21:36:00,
2013-01-05 16:41:00,27.1,2.8,18.26,WNW,303,0.0,0.0,35,0.00,,,0.00,WUHU216WMR968SP,2013-01-05 21:41:00,
2013-01-05 16:46:00,27.3,3.0,18.26,WNW,303,0.0,0.0,35,0.00,,,0.00,WUHU216WMR968SP,2013-01-05 21:46:00,
2013-01-05 16:51:00,27.1,2.8,18.26,WNW,303,0.0,0.0,35,0.00,,,0.00,WUHU216WMR968SP,2013-01-05 21:51:00,
2013-01-05 16:56:00,26.4,2.2,18.26,WNW,303,0.0,2.2,35,0.00,,,0.00,WUHU216WMR968SP,2013-01-05 21:56:00,
2013-01-05 17:01:00,26.6,3.0,18.26,WNW,297,0.0,2.2,36,0.00,,,0.00,WUHU216WMR968SP,2013-01-05 22:01:00,
2013-01-05 17:06:00,26.6,3.0,18.26,NW,315,0.0,0.0,36,0.00,,,0.00,WUHU216WMR968SP,2013-01-05 22:06:00,
2013-01-05 17:11:00,26.4,3.4,18.26,NW,317,0.0,0.0,37,0.00,,,0.00,WUHU216WMR968SP,2013-01-05 22:11:00,
2013-01-05 17:16:00,26.2,3.8,18.26,NW,317,0.0,0.0,38,0.00,,,0.00,WUHU216WMR968SP,2013-01-05 22:16:00,
2013-01-05 17:21:00,26.1,3.7,18.26,NW,317,0.0,0.0,38,0.00,,,0.00,WUHU216WMR968SP,2013-01-05 22:21:00,
2013-01-05 17:26:00,25.7,3.9,18.26,NW,317,0.0,0.0,39,0.00,,,0.00,WUHU216WMR968SP,2013-01-05 22:26:00,
2013-01-05 17:31:00,25.7,4.5,18.26,NW,317,0.0,0.0,40,0.00,,,0.00,WUHU216WMR968SP,2013-01-05 22:31:00,
2013-01-05 17:36:00,25.3,4.1,18.26,NW,317,0.0,0.0,40,0.00,,,0.00,WUHU216WMR968SP,2013-01-05 22:36:00,
2013-01-05 17:41:00,25.2,4.6,18.26,NW,317,0.0,0.0,41,0.00,,,0.00,WUHU216WMR968SP,2013-01-05 22:41:00,
2013-01-05 17:46:00,24.6,4.6,18.26,NW,317,0.0,0.0,42,0.00,,,0.00,WUHU216WMR968SP,2013-01-05 22:46:00,
2013-01-05 17:51:00,24.4,4.4,18.26,NW,317,0.0,0.0,42,0.00,,,0.00,WUHU216WMR968SP,2013-01-05 22:51:00,
2013-01-05 17:56:00,24.6,5.1,18.26,NW,317,0.0,0.0,43,0.00,,,0.00,WUHU216WMR968SP,2013-01-05 22:56:00,
2013-01-05 18:01:00,24.4,4.9,18.26,NW,317,0.0,0.0,43,0.00,,,0.00,WUHU216WMR968SP,2013-01-05 23:01:00,
2013-01-05 18:06:00,24.3,4.8,18.26,NW,317,0.0,0.0,43,0.00,,,0.00,WUHU216WMR968SP,2013-01-05 23:06:00,
2013-01-05 18:11:00,24.1,4.7,18.26,NW,317,0.0,0.0,43,0.00,,,0.00,WUHU216WMR968SP,2013-01-05 23:11:00,
2013-01-05 18:16:00,24.1,4.7,18.26,NW,317,0.0,0.0,43,0.00,,,0.00,WUHU216WMR968SP,2013-01-05 23:16:00,
2013-01-05 18:21:00,23.9,4.5,18.26,NW,317,0.0,0.0,43,0.00,,,0.00,WUHU216WMR968SP,2013-01-05 23:21:00,
2013-01-05 18:26:00,24.1,4.7,18.26,NW,317,0.0,0.0,43,0.00,,,0.00,WUHU216WMR968SP,2013-01-05 23:26:00,
2013-01-05 18:31:00,23.7,4.3,18.26,NW,317,0.0,0.0,43,0.00,,,0.00,WUHU216WMR968SP,2013-01-05 23:31:00,
2013-01-05 18:36:00,23.5,4.1,18.26,NW,317,0.0,0.0,43,0.00,,,0.00,WUHU216WMR968SP,2013-01-05 23:36:00,
2013-01-05 18:41:00,23.7,3.8,18.26,NNW,329,0.0,0.0,42,0.00,,,0.00,WUHU216WMR968SP,2013-01-05 23:41:00,
2013-01-05 18:46:00,23.7,3.8,18.26,NNW,329,0.0,0.0,42,0.00,,,0.00,WUHU216WMR968SP,2013-01-05 23:46:00,
2013-01-05 18:51:00,23.9,3.9,18.26,NNW,329,0.0,0.0,42,0.00,,,0.00,WUHU216WMR968SP,2013-01-05 23:51:00,
2013-01-05 18:56:00,23.7,3.8,18.26,NNW,329,0.0,0.0,42,0.00,,,0.00,WUHU216WMR968SP,2013-01-05 23:56:00,
2013-01-05 19:01:00,23.4,4.0,18.26,NNW,329,0.0,0.0,43,0.00,,,0.00,WUHU216WMR968SP,2013-01-06 00:01:00,
2013-01-05 19:06:00,23.0,3.7,18.26,NNW,329,0.0,0.0,43,0.00,,,0.00,WUHU216WMR968SP,2013-01-06 00:06:00,
2013-01-05 19:11:00,23.0,4.2,18.26,NNW,329,0.0,0.0,44,0.00,,,0.00,WUHU216WMR968SP,2013-01-06 00:11:00,
2013-01-05 19:16:00,22.3,3.5,18.26,NNW,329,0.0,0.0,44,0.00,,,0.00,WUHU216WMR968SP,2013-01-06 00:16:00,
2013-01-05 19:21:00,22.1,3.3,18.26,NNW,329,0.0,0.0,44,0.00,,,0.00,WUHU216WMR968SP,2013-01-06 00:21:00,
2013-01-05 19:26:00,21.9,3.2,18.26,NNW,329,0.0,0.0,44,0.00,,,0.00,WUHU216WMR968SP,2013-01-06 00:26:00,
2013-01-05 19:31:00,21.7,3.5,18.26,NNW,329,0.0,0.0,45,0.00,,,0.00,WUHU216WMR968SP,2013-01-06 00:31:00,
2013-01-05 19:36:00,21.2,3.0,18.26,NNW,329,0.0,0.0,45,0.00,,,0.00,WUHU216WMR968SP,2013-01-06 00:36:00,
2013-01-05 19:41:00,21.2,4.5,18.26,NNW,329,0.0,0.0,48,0.00,,,0.00,WUHU216WMR968SP,2013-01-06 00:41:00,
2013-01-05 19:46:00,21.0,4.3,18.26,NNW,329,0.0,0.0,48,0.00,,,0.00,WUHU216WMR968SP,2013-01-06 00:46:00,
2013-01-05 19:51:00,20.7,4.0,18.26,NNW,329,0.0,0.0,48,0.00,,,0.00,WUHU216WMR968SP,2013-01-06 00:51:00,
2013-01-05 19:56:00,20.5,3.8,18.26,NNW,329,0.0,0.0,48,0.00,,,0.00,WUHU216WMR968SP,2013-01-06 00:56:00,
2013-01-05 20:01:00,20.5,4.7,18.26,NNW,329,0.0,0.0,50,0.00,,,0.00,WUHU216WMR968SP,2013-01-06 01:01:00,
2013-01-05 20:06:00,20.3,4.5,18.26,NNW,329,0.0,0.0,50,0.00,,,0.00,WUHU216WMR968SP,2013-01-06 01:06:00,
2013-01-05 20:11:00,20.1,4.8,18.26,NNW,329,0.0,0.0,51,0.00,,,0.00,WUHU216WMR968SP,2013-01-06 01:11:00,
2013-01-05 20:16:00,19.6,4.3,18.26,NNW,329,0.0,0.0,51,0.00,,,0.00,WUHU216WMR968SP,2013-01-06 01:16:00,
2013-01-05 20:21:00,19.4,4.6,18.26,NNW,329,0.0,0.0,52,0.00,,,0.00,WUHU216WMR968SP,2013-01-06 01:21:00,
2013-01-05 20:26:00,19.6,5.6,18.26,NNW,329,0.0,0.0,54,0.00,,,0.00,WUHU216WMR968SP,2013-01-06 01:26:00,
2013-01-05 20:31:00,19.2,5.2,18.26,NNW,329,0.0,0.0,54,0.00,,,0.00,WUHU216WMR968SP,2013-01-06 01:31:00,
2013-01-05 20:36:00,19.0,5.1,18.26,NNW,329,0.0,0.0,54,0.00,,,0.00,WUHU216WMR968SP,2013-01-06 01:36:00,
2013-01-05 20:41:00,18.7,4.8,18.26,NNW,329,0.0,0.0,54,0.00,,,0.00,WUHU216WMR968SP,2013-01-06 01:41:00,
2013-01-05 20:46:00,18.3,4.4,18.26,NNW,329,0.0,0.0,54,0.00,,,0.00,WUHU216WMR968SP,2013-01-06 01:46:00,
2013-01-05 20:51:00,18.1,4.2,18.26,NNW,329,0.0,0.0,54,0.00,,,0.00,WUHU216WMR968SP,2013-01-06 01:51:00,
2013-01-05 20:56:00,17.8,3.9,18.26,NNW,329,0.0,0.0,54,0.00,,,0.00,WUHU216WMR968SP,2013-01-06 01:56:00,
2013-01-05 21:01:00,17.6,4.2,18.26,NNW,329,0.0,0.0,55,0.00,,,0.00,WUHU216WMR968SP,2013-01-06 02:01:00,
2013-01-05 21:06:00,17.6,4.2,18.26,NNW,329,0.0,0.0,55,0.00,,,0.00,WUHU216WMR968SP,2013-01-06 02:06:00,
2013-01-05 21:11:00,17.2,3.8,18.26,NNW,329,0.0,0.0,55,0.00,,,0.00,WUHU216WMR968SP,2013-01-06 02:11:00,
2013-01-05 21:16:00,17.4,4.0,18.26,NNW,329,0.0,0.0,55,0.00,,,0.00,WUHU216WMR968SP,2013-01-06 02:16:00,
2013-01-05 21:21:00,17.2,3.8,18.26,NNW,329,0.0,0.0,55,0.00,,,0.00,WUHU216WMR968SP,2013-01-06 02:21:00,
2013-01-05 21:26:00,17.4,4.0,18.26,NNW,329,0.0,0.0,55,0.00,,,0.00,WUHU216WMR968SP,2013-01-06 02:26:00,
2013-01-05 21:31:00,17.1,3.7,18.26,NNW,329,0.0,0.0,55,0.00,,,0.00,WUHU216WMR968SP,2013-01-06 02:31:00,
2013-01-05 21:36:00,17.4,4.4,18.26,NNW,329,0.0,0.0,56,0.00,,,0.00,WUHU216WMR968SP,2013-01-06 02:36:00,
2013-01-05 21:41:00,17.6,4.6,18.26,NNW,329,0.0,0.0,56,0.00,,,0.00,WUHU216WMR968SP,2013-01-06 02:41:00,
2013-01-05 21:46:00,17.8,4.7,18.26,NNW,329,0.0,0.0,56,0.00,,,0.00,WUHU216WMR968SP,2013-01-06 02:46:00,
2013-01-05 21:51:00,17.8,4.3,18.26,NNW,329,0.0,0.0,55,0.00,,,0.00,WUHU216WMR968SP,2013-01-06 02:51:00,
2013-01-05 21:56:00,18.1,5.0,18.26,NNW,329,0.0,0.0,56,0.00,,,0.00,WUHU216WMR968SP,2013-01-06 02:56:00,
2013-01-05 22:01:00,17.6,4.2,18.26,NNW,329,0.0,0.0,55,0.00,,,0.00,WUHU216WMR968SP,2013-01-06 03:01:00,
2013-01-05 22:06:00,17.2,3.8,18.26,NNW,329,0.0,0.0,55,0.00,,,0.00,WUHU216WMR968SP,2013-01-06 03:06:00,
2013-01-05 22:11:00,17.1,3.7,18.26,NNW,329,0.0,0.0,55,0.00,,,0.00,WUHU216WMR968SP,2013-01-06 03:11:00,
2013-01-05 22:16:00,17.1,3.7,18.26,NNW,329,0.0,0.0,55,0.00,,,0.00,WUHU216WMR968SP,2013-01-06 03:16:00,
2013-01-05 22:21:00,16.9,3.5,18.26,NNW,329,0.0,0.0,55,0.00,,,0.00,WUHU216WMR968SP,2013-01-06 03:21:00,
2013-01-05 22:26:00,17.1,3.7,18.26,NNW,329,0.0,0.0,55,0.00,,,0.00,WUHU216WMR968SP,2013-01-06 03:26:00,
2013-01-05 22:31:00,17.4,4.4,18.26,NNW,329,0.0,0.0,56,0.00,,,0.00,WUHU216WMR968SP,2013-01-06 03:31:00,
2013-01-05 22:36:00,17.1,4.1,18.26,NNW,329,0.0,0.0,56,0.00,,,0.00,WUHU216WMR968SP,2013-01-06 03:36:00,
2013-01-05 22:41:00,16.9,3.9,18.26,NNW,329,0.0,0.0,56,0.00,,,0.00,WUHU216WMR968SP,2013-01-06 03:41:00,
2013-01-05 22:46:00,17.1,4.1,18.26,NNW,329,0.0,0.0,56,0.00,,,0.00,WUHU216WMR968SP,2013-01-06 03:46:00,
2013-01-05 22:51:00,17.1,4.1,18.26,NNW,329,0.0,0.0,56,0.00,,,0.00,WUHU216WMR968SP,2013-01-06 03:51:00,
2013-01-05 22:56:00,17.1,4.1,18.26,NNW,329,0.0,0.0,56,0.00,,,0.00,WUHU216WMR968SP,2013-01-06 03:56:00,
2013-01-05 23:01:00,16.9,3.9,18.26,NNW,329,0.0,0.0,56,0.00,,,0.00,WUHU216WMR968SP,2013-01-06 04:01:00,
2013-01-05 23:06:00,17.4,4.4,18.26,NNW,329,0.0,0.0,56,0.00,,,0.00,WUHU216WMR968SP,2013-01-06 04:06:00,
2013-01-05 23:11:00,17.4,4.4,18.26,NNW,329,0.0,0.0,56,0.00,,,0.00,WUHU216WMR968SP,2013-01-06 04:11:00,
2013-01-05 23:16:00,17.1,3.7,18.26,NNW,329,0.0,0.0,55,0.00,,,0.00,WUHU216WMR968SP,2013-01-06 04:16:00,
2013-01-05 23:21:00,17.2,4.2,18.26,NNW,329,0.0,0.0,56,0.00,,,0.00,WUHU216WMR968SP,2013-01-06 04:21:00,
2013-01-05 23:26:00,16.9,3.9,18.26,NNW,329,0.0,0.0,56,0.00,,,0.00,WUHU216WMR968SP,2013-01-06 04:26:00,
2013-01-05 23:31:00,16.7,3.7,18.26,NNW,329,0.0,0.0,56,0.00,,,0.00,WUHU216WMR968SP,2013-01-06 04:31:00,
2013-01-05 23:36:00,16.9,3.9,18.26,NNW,329,0.0,0.0,56,0.00,,,0.00,WUHU216WMR968SP,2013-01-06 04:36:00,
2013-01-05 23:41:00,16.7,3.7,18.26,NNW,329,0.0,0.0,56,0.00,,,0.00,WUHU216WMR968SP,2013-01-06 04:41:00,
2013-01-05 23:46:00,16.5,3.9,18.26,NNW,329,0.0,0.0,57,0.00,,,0.00,WUHU216WMR968SP,2013-01-06 04:46:00,
2013-01-05 23:51:00,16.5,3.9,18.26,NNW,329,0.0,0.0,57,0.00,,,0.00,WUHU216WMR968SP,2013-01-06 04:51:00,
2013-01-05 23:56:00,16.7,4.5,18.26,NNW,329,0.0,0.0,58,0.00,,,0.00,WUHU216WMR968SP,2013-01-06 04:56:00,